User: anonymous   Login
Location: Altleiningen
(49.5078°N, 8.0741°E)
Time: 12:15:28
(UTC+00:00)
Language:

FALCON 9 DEB - Orbit

View from above orbital plane
View from above orbital plane
View from above satellite
View from above satellite

Ground track
Ground track

The orbit data is extracted from the following two-line orbital elements,

1 44295U 19029BN  21138.07786875  .00002440  00000-0  58091-4 0  9995
2 44295  53.0017 325.4060 0009945  65.6124 294.5919 15.45931513113217
Epoch (UTC): 18 May 2021 01:52:07
Eccentricity: 0.0009945
inclination: 53.0017°
perigee height: 422 km
apogee height: 435 km
right ascension of ascending node: 325.4060°
argument of perigee: 65.6124°
revolutions per day: 15.45931513
mean anomaly at epoch: 294.5919°
orbit number at epoch: 11321

The dashed part of the orbit path shows where the satellite is in the earth's shadow,  

DLR